Flag for Netherlands Weather past 2 weeks in Rotterdam, Netherlands

Now
37 °F

Chilly.


Feels Like: 37 °F
Forecast: 38 / 54 °F
Wind: 1 mph from North

Location: Rotterdam Zestienhoven Airport

Current Time: Apr 18, 2015 at 7:42:56 AM

Latest Report: Apr 18, 2015 at 6:55 AM


Visibility: N/A

Pressure: 30.33 "Hg

Humidity: 93%

Dew point: 36 °F

Location of RotterdamLocation

Historic Weather in Rotterdam — Graph

°F

Rotterdam temperature yesterday

Maximum temperature yesterday: 54 °F (at 1:25 PM)
Minimum temperature yesterday: 43 °F (at 1:25 AM)
Average temperature yesterday: 48 °F

Past Weeks' High & Low Weather Summary

 TemperatureHumidityPressure
High70 °F (Apr 15, 1:55 PM)100% (Apr 5, 6:55 AM)30.63 "Hg (Apr 5, 6:55 AM)
Low30 °F (Apr 5, 5:25 AM)37% (Apr 10, 6:25 PM)29.92 "Hg (Apr 11, 1:55 AM)
Average48 °F77%30.25 "Hg
* Reported Apr 3 6:25 AM — Apr 18 6:25 AM, Rotterdam, Weather by CustomWeather, © 2015

Note: Actual official high and low records may vary slightly from our data, if they occured in-between our weather recording intervals... More about our weather records

Advertising

Rotterdam weather history for previous 24 hours

 ConditionsComfort  
Time TempWeatherWind HumidityBarometerVisibility
6:25 AM
Sat, Apr 18
36 °FChilly.2 mph100%30.30 "HgN/A
5:55 AM36 °FClear.2 mph93%30.30 "HgN/A
5:25 AM36 °FChilly.2 mph100%30.30 "HgN/A
4:55 AM37 °FChilly.2 mph93%30.30 "HgN/A
4:25 AM39 °FChilly.5 mph87%30.30 "HgN/A
3:55 AM39 °FChilly.6 mph93%30.30 "HgN/A
3:25 AM39 °FChilly.3 mph93%30.30 "HgN/A
2:55 AM41 °FQuite cool.3 mph87%30.30 "HgN/A
2:25 AM41 °FQuite cool.3 mph87%30.30 "HgN/A
1:55 AM41 °FQuite cool.2 mph87%30.30 "HgN/A
1:25 AM41 °FQuite cool.5 mph87%30.30 "HgN/A
12:55 AM43 °FQuite cool.8 mph81%30.27 "HgN/A
12:25 AM43 °FClear.6 mph81%30.27 "HgN/A
11:55 PM
Fri, Apr 17
43 °FQuite cool.7 mph81%30.27 "HgN/A
11:25 PM45 °FQuite cool.8 mph76%30.24 "HgN/A
10:55 PM45 °FQuite cool.9 mph76%30.24 "HgN/A
10:25 PM45 °FQuite cool.10 mph76%30.24 "HgN/A
9:55 PM45 °FQuite cool.9 mph71%30.21 "HgN/A
9:25 PM45 °FQuite cool.9 mph71%30.21 "HgN/A
8:55 PM46 °FCool.12 mph66%30.18 "HgN/A
8:25 PM48 °FCool.13 mph62%30.18 "HgN/A
7:55 PM50 °FPartly sunny.12 mph58%30.18 "HgN/A
7:25 PM50 °FPartly sunny.13 mph71%30.15 "HgN/A
6:55 PM50 °FPassing clouds.15 mph58%30.15 "HgN/A
6:25 PM52 °FCool.14 mph54%30.15 "HgN/A
5:55 PM52 °FBroken clouds.15 mph62%30.12 "HgN/A
5:25 PM52 °FScattered clouds.14 mph67%30.15 "HgN/A
4:55 PM52 °FPartly sunny.13 mph67%30.12 "HgN/A
4:25 PM52 °FBroken clouds.15 mph67%30.12 "HgN/A
3:55 PM54 °FPartly sunny.10 mph58%30.12 "HgN/A
3:25 PM54 °FPartly sunny.12 mph54%30.12 "HgN/A
2:55 PM54 °FScattered clouds.13 mph58%30.12 "HgN/A
2:25 PM52 °FOvercast.12 mph62%30.12 "HgN/A
1:55 PM52 °FOvercast.12 mph62%30.12 "HgN/A
1:25 PM54 °FPartly sunny.14 mph63%30.12 "HgN/A
12:55 PM50 °FOvercast.13 mph71%30.12 "HgN/A
12:25 PM52 °FPartly sunny.15 mph67%30.12 "HgN/A
11:55 AM50 °FScattered clouds.16 mph67%30.12 "HgN/A
11:25 AM50 °FScattered clouds.15 mph67%30.09 "HgN/A
10:55 AM50 °FPartly sunny.12 mph71%30.09 "HgN/A
10:25 AM50 °FScattered clouds.13 mph67%30.09 "HgN/A
9:55 AM48 °FClear.10 mph71%30.07 "HgN/A
9:25 AM48 °FClear.12 mph71%30.07 "HgN/A
8:55 AM48 °FClear.8 mph71%30.07 "HgN/A
8:25 AM46 °FClear.8 mph76%30.07 "HgN/A
7:55 AM46 °FClear.6 mph76%30.07 "HgN/A
7:25 AM45 °FClear.8 mph76%30.04 "HgN/A
Weather by CustomWeather, © 2015

See weather overviewHow to use our weather pages